Theta_e
300 301 301 301 301 301 301 301 301 301 301 301 301 301 302 303 302 301 302 302 304 305 304 304 304 306 307 308 310 309 311 314 321 319 318 318 320 320 323 328 329 328 330 326 329 329 333 330 329 333 340 339 339 337
300 300 301 301 301 301 301 301 301 302 302 301 301 302 302 303 302 302 302 303 303 304 305 303 303 304 304 305 306 307 310 309 314 318 322 322 324 323 325 322 327 330 331 331 333 329 342 330 337 335 334 341 339 343
300 299 299 300 300 300 300 300 300 301 301 301 301 302 303 303 302 302 301 301 300 303 303 303 304 303 303 303 304 306 307 309 310 308 312 318 330 325 323 323 332 331 328 332 332 338 333 332 332 338 332 335 339 340
303 303 302 301 300 300 300 301 302 302 301 301 301 301 301 301 301 302 301 300 300 302 302 303 303 305 305 304 304 304 305 306 306 308 312 315 322 326 329 323 325 331 333 340 337 338 339 339 340 338 337 339 341 343
302 302 302 303 302 302 302 302 302 302 302 302 302 302 302 302 302 302 301 301 300 301 303 304 303 305 305 305 305 305 305 306 307 310 314 322 323 329 330 330 327 327 339 336 335 345 345 344 344 341 342 343 345 346
302 302 301 301 302 302 302 302 302 303 302 302 302 302 304 304 303 302 303 303 302 301 303 307 306 308 308 306 306 306 306 307 308 312 316 322 324 329 334 335 333 337 337 337 340 337 341 343 343 342 344 344 345 346
301 301 301 301 301 301 301 302 302 303 304 304 304 305 304 304 304 303 305 304 303 302 305 308 311 309 309 307 308 309 309 311 311 315 321 325 327 328 333 334 338 337 336 337 337 340 346 344 346 342 343 343 341 343
301 302 302 301 301 302 303 304 305 304 305 305 305 304 306 305 304 304 304 303 303 304 305 309 312 314 310 312 312 313 317 315 317 324 327 328 327 331 338 337 337 336 336 339 338 340 341 343 342 341 341 341 342 342
302 303 302 301 302 303 304 305 305 305 305 306 304 305 305 305 305 304 306 306 304 305 307 310 316 318 313 315 316 318 320 320 321 328 330 330 333 340 339 338 337 335 335 335 338 340 341 343 340 339 339 340 340 338
302 302 302 301 301 302 304 305 305 306 307 306 306 307 309 306 305 306 305 305 305 306 306 310 311 317 316 320 321 322 322 321 325 326 326 332 334 334 333 333 333 334 334 337 341 343 342 341 339 338 338 337 337 337
303 303 302 302 302 303 305 306 306 306 307 306 307 307 306 306 307 309 308 309 309 311 310 312 315 316 317 322 323 319 324 323 322 326 330 331 334 335 332 330 334 333 334 335 336 338 338 338 337 336 335 334 334 332
304 303 303 303 303 305 307 307 306 307 306 307 306 305 305 310 311 311 313 314 315 315 312 316 315 316 319 317 321 320 324 323 325 325 332 329 333 330 329 332 333 334 334 334 334 334 334 334 333 332 332 331 330 328
305 304 304 304 306 306 307 307 308 308 306 306 306 312 312 313 315 310 315 312 312 313 315 312 320 320 319 318 320 321 324 325 323 326 326 331 329 329 330 331 332 331 332 331 331 331 329 329 327 327 328 326 326 325
306 305 305 306 306 307 308 309 309 308 307 311 312 312 315 317 315 315 315 316 316 317 319 318 318 320 320 322 321 324 322 323 328 325 330 330 327 330 328 329 330 331 332 332 331 330 330 329 327 325 325 323 322 320
306 306 307 307 308 308 309 309 309 309 309 311 312 314 315 314 313 314 314 315 316 317 318 320 319 320 322 324 323 322 324 326 327 329 328 328 325 329 328 326 327 328 328 329 329 328 327 326 325 323 321 320 319 318
306 307 308 308 308 309 309 310 310 309 308 311 312 313 314 315 314 314 315 317 315 317 319 320 320 321 323 323 324 326 325 326 327 326 323 326 326 327 327 326 325 325 326 327 326 325 325 323 323 321 319 318 318 318
308 308 308 309 309 310 309 310 309 309 311 312 313 309 313 312 314 314 314 315 313 318 320 320 321 323 321 323 324 324 322 321 320 319 323 324 326 326 325 325 325 327 327 326 326 326 324 323 322 322 322 319 317 316
307 309 309 309 309 309 309 309 310 312 313 312 312 313 311 311 313 315 313 314 316 319 319 319 319 320 317 321 325 324 324 322 322 321 321 323 322 322 323 325 325 326 324 323 322 322 323 322 323 322 320 319 317 318
308 309 310 310 308 309 310 310 310 314 313 311 310 312 312 313 315 314 316 316 315 316 320 320 321 322 323 322 322 322 322 321 322 321 320 319 320 320 320 321 321 321 322 323 322 322 322 321 320 320 317 315 316 314
310 310 311 311 309 310 312 312 309 313 316 314 312 314 315 316 313 315 316 315 317 318 320 320 319 318 318 319 319 321 320 319 319 320 320 319 317 317 316 316 317 316 316 316 314 315 315 314 317 316 315 313 312 312
311 311 313 313 311 309 311 311 314 312 313 314 314 315 317 315 316 316 316 314 318 317 320 318 317 315 316 318 319 318 318 318 318 317 316 318 318 317 317 316 314 314 315 317 316 313 313 313 313 314 313 313 313 312
311 311 312 313 312 311 313 308 313 311 314 316 318 316 318 319 318 318 313 317 317 317 316 317 316 317 318 317 316 317 319 319 319 318 317 316 318 319 318 316 314 316 314 314 314 313 312 312 311 312 312 312 312 311
311 311 312 313 316 314 314 310 318 317 320 319 318 319 320 320 319 316 320 318 317 314 313 314 314 314 315 315 316 315 315 318 319 319 319 318 318 318 318 315 315 315 315 315 315 316 316 314 312 313 313 311 312 312
311 311 316 318 319 317 317 320 318 318 318 319 319 318 318 319 316 317 318 319 317 316 315 315 315 317 317 318 317 316 314 315 316 316 316 318 318 317 316 316 315 315 315 315 316 317 318 318 317 316 314 314 315 315
312 314 316 312 318 320 319 319 319 318 318 318 318 318 319 315 317 317 318 318 318 316 316 315 314 315 317 316 315 314 313 314 315 316 315 315 315 315 316 315 316 317 316 316 316 316 316 316 317 317 317 317 317 317
315 318 318 321 319 317 315 315 316 316 317 318 318 317 315 317 317 317 318 317 316 316 315 314 314 316 315 313 315 314 312 311 314 315 315 314 314 315 316 316 316 315 315 316 316 317 317 318 318 318 318 317 316 315
319 321 317 317 319 315 315 314 313 315 315 316 316 317 317 317 317 318 316 315 315 313 312 311 311 312 312 311 311 310 311 311 311 312 311 311 311 311 311 312 313 311 311 311 312 314 314 314 314 313 312 311 312 312
322 322 322 320 317 315 317 317 316 316 315 313 315 317 317 316 317 316 315 313 312 312 312 312 312 311 311 310 309 310 310 311 311 312 312 312 311 309 308 309 309 307 308 307 308 309 310 309 309 310 309 309 309 309
322 320 321 321 319 317 316 317 317 315 313 315 316 316 316 315 314 314 314 312 311 313 313 312 310 310 310 310 308 307 307 307 309 311 311 310 309 307 305 305 305 306 306 306 306 306 306 307 307 307 307 308 309 309
322 321 323 322 321 319 319 317 318 318 312 312 313 314 315 315 313 312 313 312 313 312 309 308 308 309 309 308 308 307 304 303 303 304 305 305 304 303 302 302 302 303 304 305 305 306 306 306 307 307 308 308 308 309
321 319 320 321 320 319 319 318 317 314 312 315 314 316 316 316 314 312 312 312 310 309 309 309 307 305 305 305 305 305 304 303 302 302 301 301 301 301 300 300 300 301 303 304 305 306 307 307 308 308 309 308 307 307
321 322 322 322 323 321 318 320 321 320 319 318 317 318 318 318 317 314 308 310 308 309 306 306 306 304 303 303 302 302 301 301 300 300 300 300 300 299 299 299 299 300 301 303 304 305 305 305 305 305 304 303 303 303
320 320 321 321 320 321 320 321 321 321 321 320 319 319 319 318 318 313 306 306 306 306 306 304 304 303 303 302 302 301 301 300 299 299 299 298 298 298 298 299 299 300 300 301 301 302 303 303 303 303 302 302 301 301
Wind_Speed
19 20 19 18 17 16 15 13 13 13 12 10 11 11 10 8 7 6 7 6 6 3 10 12 13 9 5 5 4 7 5 3 3 11 13 9 7 10 8 7 10 9 10 6 5 7 12 7 10 13 10 4 8 14
20 19 20 19 18 17 16 15 14 13 12 11 12 12 11 11 9 7 4 3 5 5 6 14 17 19 21 16 10 4 5 5 4 3 1 2 4 5 9 12 3 10 7 8 11 8 4 9 3 6 4 8 9 17
21 20 19 18 17 16 16 15 14 14 13 13 13 14 14 14 11 8 7 6 3 3 10 9 11 21 25 31 22 4 3 4 3 5 3 2 5 3 9 10 5 6 5 6 6 12 11 7 8 5 5 7 8 13
21 20 19 19 18 17 16 16 15 14 14 14 14 14 14 14 12 10 7 5 5 3 4 5 3 4 4 17 29 30 18 3 8 6 3 3 4 2 2 2 6 2 10 9 6 3 2 8 11 9 7 5 10 13
21 21 20 20 20 20 19 18 18 18 19 20 20 19 18 16 13 12 15 17 19 6 3 7 21 9 13 16 17 22 21 14 6 4 3 3 3 3 2 2 4 4 3 7 5 6 5 3 9 10 9 9 12 19
23 23 22 22 21 21 20 20 20 21 22 21 21 21 17 14 10 2 3 4 18 18 2 3 5 2 4 14 10 10 9 6 4 3 4 4 4 3 3 4 2 3 4 6 2 6 3 2 5 7 10 12 13 14
24 24 23 23 23 23 23 23 24 25 27 26 24 21 15 11 12 5 1 1 8 17 2 3 3 2 9 12 6 3 7 3 4 3 3 3 2 3 3 5 4 6 6 7 8 5 3 7 4 9 14 14 14 16
24 25 24 24 23 22 23 24 26 31 30 28 20 12 7 9 10 9 9 16 16 5 2 3 3 2 5 4 5 6 5 3 4 3 3 3 3 3 4 2 7 6 9 3 6 7 6 4 11 13 15 19 20 19
24 24 24 24 23 23 25 25 33 31 29 18 8 1 6 4 5 4 7 9 26 2 3 2 3 2 1 5 3 2 2 1 2 3 2 2 3 5 2 6 7 7 6 8 4 3 6 9 11 13 16 17 20 21
24 24 24 25 25 27 26 23 33 32 24 7 2 2 2 5 2 9 1 2 3 4 3 3 2 2 2 3 3 4 2 3 3 4 2 4 3 2 3 6 8 9 4 4 5 5 8 10 11 12 12 12 15 18
24 25 25 26 26 27 21 29 28 27 6 2 2 1 3 3 5 2 3 3 3 4 4 3 3 2 0 3 2 1 3 2 3 3 2 2 2 2 8 8 5 3 2 3 4 5 6 11 13 12 13 14 15 19
23 24 25 26 26 18 29 27 24 14 5 6 8 6 4 1 1 3 2 2 4 1 2 2 3 3 1 1 3 2 2 1 3 1 2 2 2 7 8 5 4 4 8 10 11 14 14 14 13 14 15 15 18 22
24 24 25 24 15 26 28 24 18 15 4 1 2 2 1 1 2 2 4 1 3 2 4 3 3 2 3 1 0 1 4 3 0 2 2 1 7 5 6 5 6 7 10 14 15 16 20 19 22 22 16 22 25 23
23 24 23 13 24 28 23 17 15 6 2 2 4 6 5 5 4 4 10 6 2 3 4 3 2 1 2 4 2 3 1 1 4 5 1 3 7 3 4 5 5 9 10 14 16 17 18 18 18 25 26 26 27 25
24 21 10 22 28 23 17 15 9 5 2 3 4 6 4 6 8 9 8 3 2 1 1 2 2 1 1 1 1 2 1 2 2 2 0 4 6 3 5 5 4 8 10 12 13 15 18 22 22 24 24 26 28 27
20 6 16 26 23 15 15 7 8 4 4 3 5 5 7 6 8 9 9 7 7 2 0 2 3 3 3 3 0 5 3 3 4 4 6 7 4 5 6 5 2 6 10 12 14 17 20 21 21 23 27 28 26 26
7 8 21 24 18 10 15 4 5 4 3 4 3 3 7 5 6 8 5 6 5 1 2 0 2 4 3 3 2 2 1 3 5 5 3 1 3 5 7 6 4 9 10 13 15 17 17 19 20 21 16 20 25 27
7 19 20 22 18 7 6 9 3 3 5 2 4 9 6 3 6 7 8 6 4 3 2 2 2 2 2 1 2 4 1 3 5 5 5 6 7 6 6 7 9 12 13 14 14 14 14 15 14 12 15 14 13 13
17 18 20 18 12 5 4 6 5 3 2 3 5 5 3 5 5 6 8 9 4 2 2 3 5 4 3 3 5 7 7 4 4 5 7 9 11 9 8 10 10 11 11 11 12 11 10 8 11 12 12 11 11 10
9 9 15 12 8 3 3 3 4 2 4 4 4 6 4 4 7 7 8 8 6 8 8 6 5 5 4 5 4 5 7 8 6 8 8 7 11 13 11 10 10 12 13 14 14 15 12 10 8 10 10 11 12 10
8 13 10 10 6 8 3 2 2 2 4 3 4 4 4 5 5 8 8 8 6 4 6 5 5 4 6 8 11 11 9 9 8 7 6 6 10 13 14 13 17 14 10 9 10 9 10 6 5 8 9 9 7 10
7 12 6 6 5 3 3 3 1 2 2 3 4 4 4 5 6 6 6 6 5 4 5 4 5 6 8 11 11 14 8 11 10 12 12 14 8 7 9 16 14 9 12 10 9 9 8 6 5 5 7 8 7 7
8 7 3 5 2 4 2 3 2 4 4 5 4 5 4 5 6 6 4 3 2 3 4 4 6 4 4 8 14 15 15 12 10 11 10 9 9 11 10 9 8 8 5 6 6 7 8 7 6 3 3 4 5 5
6 4 4 3 4 2 1 2 1 1 1 3 3 4 5 4 5 4 5 4 5 7 8 8 7 6 10 13 8 9 10 9 8 9 8 8 7 5 3 3 2 1 2 5 6 5 3 2 2 3 3 5 5 7
3 5 3 5 1 2 3 3 3 1 1 2 3 2 3 3 4 5 6 6 6 7 7 11 9 5 5 6 8 11 13 11 8 5 8 8 7 6 4 3 1 2 3 2 2 3 5 6 7 8 8 8 9 10
3 2 3 2 1 2 1 2 2 2 1 1 2 2 2 2 3 4 4 5 4 5 6 6 6 6 6 7 6 10 13 13 10 10 7 6 7 9 7 4 3 5 1 2 4 5 6 6 7 8 10 11 12 12
2 2 2 1 1 0 1 0 0 1 2 2 1 2 2 3 3 3 3 3 3 5 6 6 7 7 7 11 12 11 15 13 8 6 7 9 11 11 11 9 9 9 8 7 5 5 6 5 5 5 7 8 8 9
1 2 1 4 1 0 1 1 2 3 1 1 1 2 2 1 2 3 2 4 5 5 4 6 7 7 9 11 12 15 16 17 15 11 8 6 10 15 17 14 12 14 13 11 9 8 8 8 8 9 9 10 14 15
1 1 2 2 0 2 2 1 2 1 0 1 1 1 1 0 3 3 3 4 3 3 7 10 12 9 9 8 12 15 16 17 16 12 11 7 10 14 18 16 15 14 13 13 14 13 12 12 12 12 13 13 14 14
1 1 0 1 1 1 1 1 2 2 1 1 2 2 2 2 2 1 3 3 3 7 7 7 8 11 11 12 11 11 13 14 14 12 8 8 11 15 16 17 17 17 16 15 16 16 15 14 13 12 12 13 13 13
1 1 1 0 1 1 2 5 2 2 2 3 2 2 3 2 3 1 5 2 5 6 6 7 10 12 11 12 11 11 10 13 15 14 14 14 14 14 15 16 16 16 14 14 13 12 12 11 9 9 9 10 10 10
1 1 1 1 1 1 2 2 1 1 0 2 2 2 2 0 2 2 4 5 8 7 6 5 8 7 7 6 6 7 9 12 15 15 15 14 13 14 16 16 15 14 14 13 11 10 10 9 8 9 9 10 10 10
1 1 1 1 1 1 1 2 0 1 1 1 2 2 2 2 2 2 4 6 5 6 6 6 4 3 3 3 5 7 10 11 15 16 18 17 15 15 13 12 11 11 12 12 12 12 11 9 8 8 9 10 10 10
Wind_Direction
343 340 339 339 341 341 344 344 340 335 320 309 306 305 313 322 322 313 272 267 215 236 272 257 248 257 261 270 288 342 302 184 236 195 201 189 219 204 216 175 172 167 166 182 188 214 248 158 139 200 218 200 191 187
344 340 337 338 337 335 332 324 327 327 325 322 313 312 307 306 301 300 277 257 244 245 275 290 270 257 250 255 259 268 299 301 351 280 278 238 199 182 206 214 178 203 209 186 198 208 220 195 251 223 221 195 185 175
344 342 340 335 331 330 331 331 328 319 315 308 304 300 297 296 293 268 275 279 287 273 282 261 253 260 244 231 223 250 246 296 68 10 318 302 240 176 203 219 192 219 182 199 160 219 225 228 222 250 213 218 179 190
344 341 340 333 332 331 332 331 332 329 324 317 312 306 300 293 287 275 247 241 220 286 277 286 317 242 248 199 213 222 241 258 338 319 285 269 260 212 224 253 230 177 164 178 230 261 219 232 225 215 193 169 152 156
343 342 341 338 336 336 332 329 326 323 319 315 309 303 296 290 282 274 264 242 227 224 289 291 297 282 231 210 209 214 229 252 287 288 243 237 255 244 209 262 235 186 199 195 202 203 213 178 188 179 167 172 160 148
329 333 333 331 330 329 327 326 324 322 318 311 305 303 296 276 265 287 279 238 219 200 260 280 327 276 99 166 189 190 210 214 229 253 254 259 254 254 245 232 120 360 288 262 289 339 320 36 122 155 149 150 148 150
322 326 327 325 327 322 323 323 324 325 322 318 313 301 280 251 215 204 248 274 179 176 242 283 283 263 123 119 159 137 196 214 219 256 241 263 261 243 263 233 23 334 318 286 259 231 207 199 173 157 139 138 134 133
319 324 324 325 329 327 327 326 329 328 327 324 313 300 273 189 210 247 271 222 167 211 212 267 262 211 188 131 171 163 162 208 223 256 268 256 270 233 250 280 329 323 321 319 245 217 300 128 136 138 138 139 137 141
315 322 323 326 327 327 326 323 330 330 331 327 315 172 132 169 181 227 268 219 193 286 294 245 305 66 201 187 146 156 152 242 269 240 256 267 232 232 308 312 315 317 304 291 294 176 150 153 147 148 150 153 145 147
313 319 323 325 328 326 327 321 329 330 339 329 265 212 210 180 150 170 184 124 163 201 223 250 257 258 240 215 143 123 170 186 267 226 244 227 266 305 295 302 290 288 275 166 157 149 155 153 153 152 152 150 145 146
312 316 321 325 329 328 328 331 331 330 342 330 328 287 326 300 158 187 184 218 166 215 204 222 220 273 116 212 148 232 155 177 239 206 253 239 252 355 337 315 307 187 170 279 239 135 148 144 139 139 136 138 140 142
315 318 322 327 330 330 330 335 334 329 301 299 294 292 287 245 34 329 300 225 212 232 314 222 195 206 163 171 234 178 130 233 242 338 254 236 27 346 330 354 46 95 102 94 106 108 110 116 119 122 124 128 131 131
320 323 327 333 338 336 337 336 331 318 287 215 252 267 21 81 349 344 319 293 277 217 187 249 189 182 146 260 49 96 204 181 216 197 253 50 326 332 346 34 80 93 109 109 112 113 114 116 120 123 121 122 119 114
330 331 335 345 339 340 340 345 340 351 28 343 345 2 15 353 344 312 302 288 236 255 354 79 115 243 179 174 150 241 91 237 226 171 150 31 321 323 43 50 96 107 120 118 118 117 117 118 118 118 118 117 109 102
339 342 4 347 344 344 347 351 359 11 8 35 20 4 333 296 295 284 287 258 240 265 232 137 131 208 83 335 346 130 167 300 299 346 62 336 349 30 79 77 105 127 128 116 127 128 125 125 121 115 111 113 114 116
348 8 356 346 349 355 351 4 11 19 47 28 29 324 311 307 332 330 357 12 9 7 256 27 44 33 59 326 294 19 360 336 349 330 329 328 337 72 82 62 124 141 133 128 123 121 120 118 117 116 118 119 124 131
14 4 348 351 355 10 17 23 19 45 47 9 328 333 319 286 322 330 337 348 327 342 62 71 65 44 355 27 63 47 268 272 286 304 302 231 118 103 115 114 88 110 105 95 96 100 100 109 117 118 119 132 138 140
8 351 356 359 359 13 17 28 47 50 25 349 342 334 322 289 326 352 345 345 7 17 1 72 190 126 137 259 3 357 22 357 346 9 25 63 70 74 84 98 93 105 93 93 91 98 103 98 99 111 118 125 123 129
329 344 353 356 4 25 31 35 24 42 348 329 301 317 322 308 354 343 4 7 6 325 347 23 27 6 24 23 358 1 15 19 41 35 45 52 64 76 79 95 107 105 105 106 107 108 103 106 120 139 145 143 137 156
344 345 353 2 25 57 63 30 19 28 7 336 312 338 324 331 326 359 14 8 13 35 38 31 23 3 3 3 360 30 32 22 34 52 48 53 58 67 62 74 83 91 94 99 89 99 101 101 120 133 136 138 135 145
353 356 6 20 34 56 76 14 44 14 326 344 339 345 330 331 5 3 8 348 25 36 28 21 6 354 5 40 49 54 51 45 45 59 29 37 51 56 59 55 73 75 82 97 108 109 111 95 132 140 143 149 151 157
333 347 5 32 56 41 82 42 12 331 334 308 346 352 7 360 345 358 320 23 38 10 353 343 350 353 25 27 28 36 47 81 64 56 49 48 38 43 46 28 36 47 58 48 69 84 80 98 143 144 147 141 148 165
344 359 16 13 90 55 350 324 21 14 19 353 353 12 6 358 348 320 29 19 13 0 330 324 335 349 21 38 45 37 36 41 52 56 64 78 75 72 73 54 34 19 41 73 106 128 129 152 169 137 118 148 193 203
352 15 31 33 26 34 298 35 16 29 55 13 1 13 7 343 332 17 35 11 353 11 30 24 28 47 46 39 38 35 20 19 41 56 47 60 75 66 66 104 128 163 98 107 100 101 79 89 207 232 254 246 241 235
16 357 34 351 72 26 28 14 3 351 63 18 7 17 9 340 18 31 31 7 358 10 13 24 41 36 40 49 44 33 23 24 27 39 32 35 40 64 69 49 57 101 143 168 203 205 197 195 210 232 243 246 250 254
69 3 49 6 11 37 336 350 350 360 345 41 42 6 344 35 24 28 15 353 348 356 3 6 0 18 37 25 15 15 1 3 2 32 35 24 23 22 26 26 34 60 359 270 278 264 263 268 270 271 270 272 273 269
57 47 44 206 297 211 198 160 79 319 24 29 35 38 35 45 18 347 346 1 342 10 12 22 21 35 32 23 23 21 21 16 8 357 3 35 43 45 33 17 12 357 347 341 325 305 301 292 276 275 278 285 286 285
14 40 65 334 306 78 327 50 18 22 44 125 130 43 60 45 22 351 340 342 352 355 20 28 29 41 42 35 24 21 17 12 11 11 15 48 42 28 22 15 7 3 4 358 351 346 342 335 332 320 312 306 305 308
99 94 254 277 360 58 24 38 48 35 151 243 103 129 127 92 346 328 327 334 350 29 43 40 26 24 32 38 33 32 28 24 19 20 19 11 5 3 2 360 356 353 348 342 337 331 322 313 301 294 293 293 293 294
107 339 139 318 297 99 61 326 334 347 219 279 121 137 162 182 207 61 9 6 48 76 74 60 39 36 26 16 14 28 36 34 30 18 356 349 338 332 337 339 339 337 333 329 325 322 324 324 316 312 308 307 307 308
137 129 95 39 294 285 326 322 283 204 201 202 197 187 165 169 169 39 12 43 96 101 73 51 49 39 33 23 17 7 2 2 356 351 342 330 327 333 337 337 335 334 333 333 334 338 345 347 355 358 11 14 14 11
157 146 163 196 238 307 322 325 272 237 221 216 176 189 176 178 243 109 9 119 112 87 54 58 81 71 53 38 27 21 7 357 357 352 349 344 339 337 335 334 338 342 343 343 345 348 353 357 4 14 13 11 6 2
122 132 153 253 252 250 19 310 19 296 225 245 224 222 199 215 263 115 83 106 83 66 70 75 103 92 38 48 32 20 16 9 7 3 357 351 348 345 344 343 344 353 358 359 355 349 347 350 354 355 357 359 360 359